"Pseudo-MPEC" for P11jxMd

Created 2021 Sep 19 23:09:22 UT using Find_Orb

Click here for an explanation of pseudo-MPECs

 
 Astrometry: 
     P11jxMd  C2021 08 26kOHs^U\*$2agQ+AstrometrygMODsH5=wZ4LXq)Zh#?C9IG26/ygF51
     P11jxMd  C2021 08 26ng:Credacted;1gF!^C[`1b`CYD$!!CE:FFL\/clickLhere##m=F51
     P11jxMd  C2021 08 26!X*GYhD;)0#CS6gW8hT7]U]/7G5oJ\2%;qLt9KiB[F@47alforOPF51
     P11jxMd KC2021 08 27@gU#PGJ@ONT=E[l_,5[g6!UMcGexplanationVmHvZWSd$X*@a-IQ64
     P11jxMd KC2021 08 27;$nPJ-\`C#PDY#aZY.\/B:b-t79[xbQW0''A;Aq_Tt!5-/qpReY_Q64

Station data:
(F51) Pan-STARRS 1, Haleakala  (N20.707235 W156.255910)  US/Hawaii.
   Observers N. Primak, A. Schultz, S. Watters, J. Thiel, T. Goggia. Measurer
   PS1 Science Consortium. 1.8-m Ritchey-Chrétien + CCD.
(Q64) Siding Spring-LCOGT B  (S31.273002 E149.070780)  Australia/NSW.
   Observers A. Tripp, S. Roberts. Measurers M. Micheli, A. Tripp, K. Merz,
   D. Koschny. 1.0-m f/8 Ritchey-Chrétien + CCD.

Orbital elements:  P11jxMd
   Perihelion 2021 Jul 31.276740 +/- 65.8185 TT =  6:38:30 (JD 2459426.776740)
Epoch 2021 Aug 27.0 TT = JDT 2459453.5   Earth MOID: 0.3558   Ma: 0.0103
M   6.26740195 +/- 60.417887        (J2000 ecliptic)          AutoNEOCP
n   0.23452984 +/- 0.323089         Peri.  217.29609 +/- 112.58353
a   2.60417784 +/- 2.39164          Node   123.65584 +/- 35.308527
e   0.4970109 +/- 0.267702          Incl.   26.67335 +/- 8.0753345
P   4.20                   H 19.4   G  0.15   U 12.0  SR
q 1.30987289 +/- 0.497492    Q 3.89848280 +/- 20.56
From 5 observations 2021 Aug. 26-27 (28.7 hr); mean residual 0".18
Residuals in arcseconds: 
210826 F51  .04+  .10-    210826 F51  .00   .42+    210827 Q64  .07+  .13+    
210826 F51  .04-  .31-    210827 Q64  .07-  .13-    

Ephemerides (geocentric):
Date (UTC) HH   RA              Dec         delta   r     elong  mag " sig PA
---- -- -- --  -------------   -----------  ------ ------ -----  --- ---- ---
2021 09 19 23  04 50 15.196   -29 18 27.66  .78904 1.4130 103.3 21.3 315'  19
2021 09 20 00  04 50 18.251   -29 18 58.66  .78912 1.4131 103.3 21.3 316'  19
2021 09 20 01  04 50 21.300   -29 19 29.64  .78919 1.4133 103.3 21.3 318'  18
2021 09 20 02  04 50 24.343   -29 20 00.60  .78926 1.4134 103.4 21.3 319'  18
2021 09 20 03  04 50 27.379   -29 20 31.54  .78933 1.4136 103.4 21.3 321'  18
2021 09 20 04  04 50 30.409   -29 21 02.47  .78940 1.4138 103.4 21.3 323'  18
2021 09 20 05  04 50 33.432   -29 21 33.37  .78947 1.4139 103.4 21.3 324'  18
2021 09 20 06  04 50 36.449   -29 22 04.25  .78954 1.4141 103.4 21.3 326'  18
2021 09 20 07  04 50 39.460   -29 22 35.12  .78961 1.4142 103.4 21.3 327'  18
2021 09 20 08  04 50 42.465   -29 23 05.96  .78968 1.4144 103.4 21.3 329'  18
2021 09 20 09  04 50 45.464   -29 23 36.79  .78975 1.4146 103.4 21.3 330'  18
2021 09 20 10  04 50 48.456   -29 24 07.60  .78982 1.4147 103.5 21.3 332'  18
2021 09 20 11  04 50 51.441   -29 24 38.39  .78989 1.4149 103.5 21.3 334'  18
2021 09 20 12  04 50 54.421   -29 25 09.16  .78996 1.4150 103.5 21.3 335'  18
2021 09 20 13  04 50 57.394   -29 25 39.91  .79003 1.4152 103.5 21.3 337'  18
2021 09 20 14  04 51 00.361   -29 26 10.64  .79010 1.4154 103.5 21.3 339'  18
2021 09 20 15  04 51 03.322   -29 26 41.35  .79017 1.4155 103.5 21.3 340'  18
2021 09 20 16  04 51 06.276   -29 27 12.05  .79025 1.4157 103.5 21.3 342'  18
2021 09 20 17  04 51 09.224   -29 27 42.72  .79032 1.4158 103.5 21.3 343'  18
2021 09 20 18  04 51 12.166   -29 28 13.37  .79039 1.4160 103.6 21.3 345'  18
2021 09 20 19  04 51 15.101   -29 28 44.01  .79046 1.4162 103.6 21.3 347'  18
2021 09 20 20  04 51 18.030   -29 29 14.63  .79053 1.4163 103.6 21.3 348'  18
2021 09 20 21  04 51 20.953   -29 29 45.22  .79060 1.4165 103.6 21.3 350'  18
2021 09 20 22  04 51 23.870   -29 30 15.80  .79067 1.4166 103.6 21.3 352'  18
2021 09 20 23  04 51 26.780   -29 30 46.36  .79074 1.4168 103.6 21.3 353'  18
2021 09 21 00  04 51 29.684   -29 31 16.90  .79081 1.4170 103.6 21.3 355'  18
2021 09 21 01  04 51 32.582   -29 31 47.42  .79088 1.4171 103.6 21.3 357'  18
2021 09 21 02  04 51 35.473   -29 32 17.92  .79095 1.4173 103.7 21.3 359'  18
2021 09 21 03  04 51 38.358   -29 32 48.40  .79102 1.4175 103.7 21.3 360'  18
2021 09 21 04  04 51 41.236   -29 33 18.86  .79109 1.4176 103.7 21.3 362'  18
2021 09 21 05  04 51 44.109   -29 33 49.30  .79116 1.4178 103.7 21.3 364'  18
2021 09 21 06  04 51 46.975   -29 34 19.72  .79123 1.4179 103.7 21.3 365'  18
2021 09 21 07  04 51 49.835   -29 34 50.13  .79130 1.4181 103.7 21.3 367'  18
2021 09 21 08  04 51 52.688   -29 35 20.51  .79137 1.4183 103.7 21.3 369'  18
2021 09 21 09  04 51 55.535   -29 35 50.87  .79144 1.4184 103.7 21.3 371'  18
2021 09 21 10  04 51 58.376   -29 36 21.22  .79151 1.4186 103.8 21.3 373'  18
2021 09 21 11  04 52 01.211   -29 36 51.54  .79158 1.4188 103.8 21.3 374'  18
2021 09 21 12  04 52 04.039   -29 37 21.85  .79165 1.4189 103.8 21.3 376'  17
2021 09 21 13  04 52 06.861   -29 37 52.14  .79172 1.4191 103.8 21.3 378'  17
2021 09 21 14  04 52 09.676   -29 38 22.40  .79179 1.4192 103.8 21.3 380'  17
2021 09 21 15  04 52 12.486   -29 38 52.65  .79186 1.4194 103.8 21.3 381'  17
2021 09 21 16  04 52 15.289   -29 39 22.88  .79193 1.4196 103.8 21.3 383'  17
2021 09 21 17  04 52 18.085   -29 39 53.09  .79200 1.4197 103.9 21.3 385'  17
2021 09 21 18  04 52 20.876   -29 40 23.27  .79207 1.4199 103.9 21.3 387'  17
2021 09 21 19  04 52 23.660   -29 40 53.44  .79214 1.4201 103.9 21.3 389'  17
2021 09 21 20  04 52 26.437   -29 41 23.59  .79221 1.4202 103.9 21.3 391'  17
2021 09 21 21  04 52 29.209   -29 41 53.72  .79228 1.4204 103.9 21.3 392'  17
2021 09 21 22  04 52 31.974   -29 42 23.83  .79235 1.4205 103.9 21.3 394'  17